sat.trackr.live / text

‹ back to catalog

STARLINK-11455 [DTC]

NORAD 62463 · 2024-254B

PAYLOAD ACTIVE UNKNOWN

§ Identity

Operator
Country
US
Launch date
2024-12-31
Launch site
AFETR
Launch vehicle
Mass (kg)
RCS (m²)

Purposes: comms

External: N2YO · Heavens-Above · Gunter

§ Orbital elements

Epoch: 2026-05-25T05:29:14.114976Z

Period
91.67 min
Inclination
42.9991°
Eccentricity
0.0001145
Mean motion
15.70862774 rev/d
Perigee alt
355.7 km
Apogee alt
357.2 km
Semi-major
6,734.6 km
B*
1.3920e-3
RAAN
122.0941°
Arg perigee
263.0154°
Mean anomaly
97.0583°
Rev number
8,143

§ Raw data

STARLINK-11455 [DTC]1 62463U 24254B   26145.22863559  .00182313  00000+0  13920-2 0  99902 62463  42.9991 122.0941 0001145 263.0154  97.0583 15.70862774 81433

JSON: /api/v1/satellites/62463 · /tle

For live sub-satellite position, see the globe view (requires WebGL).

§ Visibility from observer

Set your observer location to see the next 7 days of passes ≥ 10°. The values pass through the URL so the page stays shareable.

No JS? Fill the form by hand. The geolocation button needs JavaScript.